Content
SEND FEEDBACK

Daily
Averages
Monthly
Summary
United States of America

SOUTH LAKE TAHOE - AIRPORT, CALIFORNIA


Home > North America > United States > California
Elevation: 6250 feet     Latitude: 38 54N     Longitude: 120 00W

WEATHER
 
SELECT A DAY
Number of Records: 174,391;   Date Range: 1/1/95 - 7/26/14
 
SHARE

PRINT THIS DATA

[ ← Previous Day ]
WEATHER ALMANAC - MAY 4, 2013
[ Next Day → ]
[ °C ]   °F
Weather ElementAverageHighLow
Temperature48.4 °F63 °F (1:53 pm)33.1 °F (5:53 am)
Dewpoint24.5 °F32 °F (5:53 pm)19 °F (8:53 am)
Humidity43.5 %70 % (11:53 pm)21 % (10:53 am)
Barometer29.80 in29.97 in (1:53 am)29.71 in (8:53 pm)
Wind Speed4.2 mph10.4 mph (10:53 am)
Weather ElementAverage
Visibility10 mi
Wind DirectionENE (58.7 °)

Weather ElementTotal
Precipitation---
Heating Degree Days17 (Base 65)
Averaged from 23 records on May 4, 2013
WEATHER CONDITIONS BREAKOUT
WIND DIRECTION BREAKOUT
WEATHER BY HOUR - MAY 4, 2013
[ °C ]   °F
Local TimeTemperatureDewpointHumidityBarometerVisibilityWind DirectionWind SpeedGust SpeedPrecipitationEventsConditions
1:53 AM37.9 °F25.0 °F60 %29.97 in10.0 miCalmClear
2:53 AM37.0 °F24.1 °F59 %29.95 in10.0 miSSW (200°)4.6 mphClear
3:53 AM35.1 °F24.1 °F64 %29.94 in10.0 miCalmClear
4:53 AM34.0 °F24.1 °F67 %29.93 in10.0 miCalmClear
5:53 AM33.1 °F23.0 °F66 %29.92 in10.0 miSouth (190°)3.5 mphClear
6:53 AM35.1 °F24.1 °F64 %29.91 in10.0 miSouth (180°)3.5 mphClear
7:53 AM45.0 °F24.1 °F44 %29.88 in10.0 miSouth (170°)5.8 mphClear
8:53 AM55.0 °F19.0 °F24 %29.83 in10.0 miEast (100°)8.1 mphClear
9:53 AM57.9 °F19.9 °F23 %29.81 in10.0 miVariable5.8 mphClear
10:53 AM61.0 °F21.0 °F21 %29.79 in10.0 miEast (90°)10.4 mphClear
11:53 AM61.0 °F19.9 °F21 %29.78 in10.0 miVariable4.6 mphClear
12:53 PM60.1 °F21.0 °F22 %29.76 in10.0 miVariable6.9 mphScattered Clouds
1:53 PM63.0 °F23.0 °F22 %29.73 in10.0 miSE (140°)5.8 mphClear
2:53 PM60.1 °F21.9 °F23 %29.72 in10.0 miEast (80°)10.4 mphScattered Clouds
3:53 PM59.0 °F21.9 °F24 %29.72 in10.0 miVariable4.6 mphOvercast
4:53 PM57.9 °F23.0 °F26 %29.72 in10.0 miNNE (30°)6.9 mphScattered Clouds
5:53 PM50.0 °F32.0 °F50 %29.78 in10.0 miVariable3.5 mphOvercast
6:53 PM51.1 °F30.9 °F46 %29.76 in10.0 miCalmMostly Cloudy
7:53 PM51.1 °F27.0 °F39 %29.74 in10.0 miCalmMostly Cloudy
8:53 PM50.0 °F27.0 °F41 %29.71 in10.0 miVariable6.9 mphClear
9:53 PM43.0 °F28.9 °F58 %29.72 in10.0 miSouth (170°)4.6 mphClear
10:53 PM39.0 °F28.9 °F67 %29.72 in10.0 miCalmClear
11:53 PM37.9 °F28.9 °F70 %29.71 in10.0 miCalmClear
Hourly data recorded from KTVL, located miles away from South Lake Tahoe - Airport, California







STORIES FROM OUR PARTNERS